Location: Elmsmere
(40.9284°N, 73.8207°W)
Time: 21:27:03
(UTC+00:00)

STARLINK-2629 - Pass Details

Date: 26 June 2021
Orbit: 348 x 351 km, 53.0° (Epoch: 31 July)

Event Time Altitude Azimuth Distance (km) Brightness Sun altitude
Exits shadow 07:19:43 68° 146° (SE) 381 2.6 -17.8°
Maximum altitude 07:19:46 68° 139° (SE) 380 2.7 -17.8°
Drops below altitude 10° 07:22:40 10° 56° (NE) 1,315 6.6 -17.5°
Sets 07:24:42 0° 54° (NE) 2,161 8.1 -17.3°
